OITTLTCI

Guest
Details From OITT - TABRIZ INTL
To LTCI - VAN
Flight Number -
Tags generated
Created
Modified
Stats Distance 141 nm / 261 km
Max Altitude 14,400 ft / 4,389 m
Waypoints 3
Social Downloads 2
Likes 0
Share VATSIM

Download

Looking for another format? Having issues loading an existing format? Contact us
Advertisement - Login to hide

Notes

Basic altitude profile: - Ascent Rate: 2500ft/min - Ascent Speed: 250kts - Cruise Altitude: 35000ft - Cruise Speed: 420kts - Descent Rate: 1500ft/min - Descent Speed: 250kts Options: - Use NATs: yes - Use PACOTS: yes - Use low airways: yes - Use high airways: yes

Route

OITT BORES LTCI

ID Type Via Altitude Latitude Longitude Leg Dist Tot Dist Heading (true) Name
O OITT APT - 0 ft / 0 m 38.13299˚ 46.23494˚ - 0 nm - TABRIZ INTL
BORES FIX - 14,400 ft / 4,389 m 38.43444˚ 45.47000˚ 40 nm 40 nm 297° / 296° -
O LTCI APT - 0 ft / 0 m 38.46822˚ 43.33230˚ 100 nm 140 nm 272° / 270° VAN

Altitude Profile

Advertisement - Login to hide

OITT

Details ICAO OITT (TBZ)
Name TABRIZ INTL
Region Iran
Timezone Asia/Tehran (UTC+4.5)
Stats Elevation 4,459 ft / 1,359 m (AMSL)
Location 38.132990° 46.234937°
Runways 2
Magnetic Variation 5.663° E

METAR

OITT 250830Z 36008KT 9999 FEW027 22/09 Q1016 A3001

Decode

TAF

TAF OITT 250500Z 2506/2612 36005MPS 7000 FEW0340 BKN100 TEMPO 2509/2518 30007G13MPS 4000 TSRA SCT035CB SCT040 OVC090 TEMPO 2521/2603 3000 TSRA BR SCT030CB SCT035 OVC090 TEMPO 2609/2615 30007G13MPS 4000 TSRA SCT035CB SCT040 OVC090

Decode

Departure Runways

ID Width Length Bearing (true) Bearing (mag) Surface Threshold Offset Overrun Length
12L 148 ft / 45 m 11,818 ft / 3,602 m 129.05° 123.39° Asphalt 0 ft / 0 m 355 ft / 108 m
12R 98 ft / 30 m 11,531 ft / 3,515 m 128.97° 123.31° Asphalt 0 ft / 0 m 340 ft / 104 m
30L 98 ft / 30 m 11,531 ft / 3,515 m 308.99° 303.33° Asphalt 0 ft / 0 m 1,130 ft / 344 m
30R 148 ft / 45 m 11,818 ft / 3,602 m 309.07° 303.41° Asphalt 0 ft / 0 m 340 ft / 104 m

LTCI

Details ICAO LTCI (VAN)
Name VAN
Region Turkey
Timezone Europe/Istanbul (UTC+3.0)
Stats Elevation 5,480 ft / 1,670 m (AMSL)
Location 38.468221° 43.332300°
Runways 1
Magnetic Variation 5.801° E

METAR

LTCI 250750Z 30011KT 9999 SCT035 BKN080 18/11 Q1015 NOSIG

Decode

TAF

Not found

Destination Runways

ID Width Length Bearing (true) Bearing (mag) Surface Threshold Offset Overrun Length
03 148 ft / 45 m 9,018 ft / 2,749 m 37.57° 31.77° Asphalt 0 ft / 0 m 196 ft / 60 m
21 148 ft / 45 m 9,018 ft / 2,749 m 217.59° 211.79° Asphalt 0 ft / 0 m 196 ft / 60 m